METAR Formatted Surface Weather Observation
Issued by NWS

Current Version | Previous Version | Text Only | Print | Product List | Glossary On
Versions: 1 2 3 4 5 6 7 8 9 10 11 12 13 14 15 16 17 18 19 20 21 22 23 24 25 26 27 28 29 30 31 32 33
794
SAUS43 KMQT 260258
MTRP53
METAR KP53 260256Z AUTO 32009KT 20/14 A2996 RMK AO1 SLP142 T02000144
51018



USA.gov is the U.S. government's official web portal to all federal, state and local government web resources and services.